STARLINK-1984 (47581 NORAD) Tracking and Keplerian Element Data

This shows tracking and keplerian element data for the satellite.

Feedback or suggestion? Click here.




ElementValue
Catalog47581
NameSTARLINK-1984
Epoch Orbit1175
Epoch Day106.25002315
Epoch Year2021
RAAN136.3193
Inclination53.0518
Eccentricity0.0004013
Argument of Perigee13.2621
Mean Anonmoly159.5401
Mean Motion15.62805336
Decay Rate-0.0004971
L11 47581U 21009AK 21106.25002315 -.00049710 00000-0 -53901-3 0 9999
L22 47581 53.0518 136.3193 0004013 13.2621 159.5401 15.62805336 11756

Live tracking and technical data element details for STARLINK-1984 (NORAD 47581). STARLINK-1984 can be tracked NOW for your location showing map with azimuth and elevation plus other details from your city location.

Track the satellite on the map from your city or location and see movement details for azimuth, elevation, latitude, longitude, range, height, and movement on the map or in text.







IsCatalogInMostPopularTable: catalog: 47581, numindb: 21
Update: records affected: 1



GetName: 47581 STARLINK-1984

Hit Count: updated at: Fri, 16 Apr 2021 12:09:42 GMT